Tracking 19246 objects as of 20-Aug-2018
HD Live streaming from Space Station
objects crossing your sky now

NOAA 16 DEB

Track NOAA 16 DEB now!
10-day predictions


NORAD ID: 42405
Int'l Code: 2000-055SZ
Perigee: 798.3 km
Apogee: 856.1 km
Inclination: 99.0 °
Period: 101.3 minutes
Semi major axis: 7198 km
RCS: Unknown
Launch date: September 21, 2000
Source: United States (US)
Launch site: AIR FORCE WESTERN TEST RANGE (AFWTR)

Note: This is SATELLITE DEBRIS
aabbcc
Your satellite tracking list
Your tracking list is empty




NASA's NSSDC Master Catalog

Two Line Element Set (TLE):
1 42405U 00055SZ  18232.47117310  .00000691  00000-0  33361-3 0  9990
2 42405  98.9864 331.2968 0040153 142.1261 218.2752 14.21573794125179
Source of the keplerian elements: AFSPC